Terminal Aerodrome Forecast
Issued by NWS

Home | Current Version | Previous Version | Text Only | Print | Product List | Glossary On
Versions: 1 2 3 4 5 6 7 8 9 10 11 12 13 14 15 16 17 18 19 20 21 22
553
FTUS43 KDTX 281552 AAB
TAFMBS
TAF AMD
KMBS 281552Z 2816/2912 05016KT P6SM OVC012
     FM281800 06014KT P6SM OVC024
     FM282100 05006KT P6SM SKC=

USA.gov is the U.S. government's official web portal to all federal, state and local government web resources and services.